Creede, CO

4:51 AM MST on December 11, 2016 (GMT -0700)
Wolf Creek Pass

Weather History for KCPW - February, 2013

Change the Weather History Date:

Thursday, February 21, 2013

  Actual Average (KE33) Record (KE33)
Temperature  
Mean Temperature 8 °F -  
Max Temperature 12 °F 36 °F 55 °F (2000)
Min Temperature 5 °F 21 °F 3 °F (2012)
Degree Days  
Heating Degree Days 56    
Moisture  
Dew Point 7 °F    
Average Humidity 89    
Maximum Humidity 92    
Minimum Humidity 85    
Precipitation  
Precipitation 0.30 in - - ()
Sea Level Pressure  
Sea Level Pressure 29.64 in    
Wind  
Wind Speed 11 mph (SW)    
Max Wind Speed 16 mph    
Max Gust Speed 24 mph    
Visibility 2 miles    
Events Snow    
Averages and records for this station are not official NWS values.
T = Trace of Precipitation, MM = Missing Value Source: NWS Daily Summary

Daily Weather History Graph

Daily Weather History Graph

Search for Another Location

Airport or City:

Trip Planner

Search our weather history database for the weather conditions in past years. The results will help you decide how hot, cold, wet, or windy it might be!

Date:

Astronomy

Feb. 21, 2013 Rise Set
Actual Time 6:48 AM MST 5:53 PM MST
Civil Twilight 6:22 AM MST 6:19 PM MST
Nautical Twilight 5:51 AM MST 6:50 PM MST
Astronomical Twilight 5:21 AM MST 7:20 PM MST
Moon 2:13 PM MST (2/21) 3:52 AM MST (2/21)
Length of Visible Light 11h 57m
Length of Day
11h 04m
Waxing Gibbous, 84% of the Moon is Illuminated
Feb 21
Waxing Gibbous
Feb 25
Full
Mar 4
Last Quarter
Mar 11
New
Mar 19
First Quarter

Hourly Weather History & Observations

Time (MST) Temp. Windchill Dew Point Humidity Pressure Visibility Wind Dir Wind Speed Gust Speed Precip Events Conditions
12:01 AM 8.6 °F -5.5 °F 5.0 °F 85% 29.53 in 0.8 mi SW 10.4 mph 16.1 mph N/A Snow Light Snow
12:24 AM 8.6 °F -2.6 °F 5.0 °F 85% 29.52 in 0.5 mi SSW 6.9 mph - N/A Snow Snow
12:48 AM 8.6 °F -2.6 °F 5.0 °F 85% 29.52 in 1.5 mi SSW 6.9 mph - N/A Snow Light Snow
1:05 AM 6.8 °F -5.9 °F 3.2 °F 85% 29.52 in 2.5 mi SW 8.1 mph - N/A Snow Light Snow
1:27 AM 5.0 °F -12.3 °F 3.2 °F 92% 29.51 in 2.5 mi SW 13.8 mph - N/A Snow Light Snow
1:44 AM 6.8 °F -8.6 °F 3.2 °F 85% 29.51 in 1.5 mi SW 11.5 mph - N/A Snow Light Snow
2:04 AM 5.0 °F -6.9 °F 3.2 °F 92% 29.51 in 1.8 mi SSW 6.9 mph - N/A Snow Light Snow
2:27 AM 5.0 °F -5.6 °F 3.2 °F 92% 29.50 in 7.0 mi West 5.8 mph - N/A   Mostly Cloudy
2:47 AM 5.0 °F -6.9 °F 1.4 °F 85% 29.49 in 10.0 mi West 6.9 mph - N/A   Scattered Clouds
3:07 AM 5.0 °F -9.1 °F 3.2 °F 92% 29.49 in 10.0 mi NW 9.2 mph - N/A   Clear
3:27 AM 5.0 °F -8.1 °F 3.2 °F 92% 29.49 in 10.0 mi NW 8.1 mph - N/A   Clear
3:47 AM 5.0 °F -9.1 °F 3.2 °F 92% 29.49 in 10.0 mi NW 9.2 mph - N/A   Clear
4:04 AM 5.0 °F -10.0 °F 3.2 °F 92% 29.50 in 10.0 mi WNW 10.4 mph 19.6 mph N/A   Clear
4:26 AM 5.0 °F -10.8 °F 1.4 °F 85% 29.50 in 10.0 mi West 11.5 mph 18.4 mph N/A   Clear
4:53 AM 5.0 °F -8.1 °F 1.4 °F 85% 29.50 in 10.0 mi West 8.1 mph - N/A   Clear
9:28 AM 8.6 °F -5.5 °F 5.0 °F 85% 29.59 in 0.5 mi SW 10.4 mph - N/A Snow Light Snow
9:48 AM 8.6 °F -3.7 °F 5.0 °F 85% 29.61 in 0.5 mi SSW 8.1 mph 18.4 mph N/A Snow Snow
10:08 AM 8.6 °F -6.3 °F 5.0 °F 85% 29.61 in 0.2 mi SSW 11.5 mph 18.4 mph N/A Snow Snow
10:29 AM 8.6 °F -6.3 °F 5.0 °F 85% 29.61 in 0.5 mi SW 11.5 mph 16.1 mph N/A Snow Snow
10:49 AM 8.6 °F -5.5 °F 5.0 °F 85% 29.63 in 0.2 mi SSW 10.4 mph - N/A Snow Snow
11:28 AM 8.6 °F -8.9 °F 5.0 °F 85% 29.63 in 0.5 mi SSW 16.1 mph 21.9 mph N/A Snow Snow
11:48 AM 10.4 °F -3.3 °F 8.6 °F 92% 29.64 in 0.5 mi SSW 10.4 mph 20.7 mph N/A Snow Light Snow
12:08 PM 12.2 °F -2.5 °F 10.4 °F 92% 29.64 in 0.5 mi SSW 12.7 mph 18.4 mph N/A Snow Snow
12:28 PM 10.4 °F -4.8 °F 8.6 °F 92% 29.63 in 0.2 mi SSW 12.7 mph 18.4 mph N/A Snow Snow
12:49 PM 12.2 °F -3.1 °F 10.4 °F 92% 29.63 in 0.2 mi SSW 13.8 mph 18.4 mph N/A Snow Snow
1:08 PM 12.2 °F -3.1 °F 10.4 °F 92% 29.63 in 0.2 mi SSW 13.8 mph 21.9 mph N/A Snow Snow
1:29 PM 12.2 °F -2.5 °F 10.4 °F 92% 29.63 in 0.2 mi SSW 12.7 mph 18.4 mph 0.01 in Snow Heavy Snow
1:49 PM 12.2 °F -1.8 °F 8.6 °F 85% 29.63 in 0.2 mi SW 11.5 mph 20.7 mph 0.01 in Snow Heavy Snow
2:08 PM 12.2 °F -4.3 °F 8.6 °F 85% 29.63 in 0.2 mi SSW 16.1 mph 20.7 mph N/A Snow Snow
2:27 PM 12.2 °F -1.8 °F 8.6 °F 85% 29.64 in 0.2 mi SSW 11.5 mph 21.9 mph N/A Snow Snow
2:47 PM 12.2 °F -2.5 °F 10.4 °F 92% 29.64 in 0.2 mi SSW 12.7 mph 18.4 mph 0.01 in Snow Snow
3:08 PM 12.2 °F -3.1 °F 8.6 °F 85% 29.65 in 0.2 mi SSW 13.8 mph 19.6 mph N/A Snow Heavy Snow
3:28 PM 12.2 °F -2.5 °F 8.6 °F 85% 29.66 in 0.2 mi SW 12.7 mph - 0.02 in Snow Heavy Snow
3:47 PM 10.4 °F -5.4 °F 8.6 °F 92% 29.66 in 0.2 mi SW 13.8 mph 19.6 mph 0.02 in Snow Snow
4:09 PM 12.2 °F -2.5 °F 8.6 °F 85% 29.66 in 0.2 mi SW 12.7 mph - N/A Snow Heavy Snow
4:27 PM 12.2 °F -1.8 °F 8.6 °F 85% 29.66 in 0.2 mi SW 11.5 mph - 0.02 in Snow Heavy Snow
4:48 PM 12.2 °F 1.7 °F 10.4 °F 92% 29.67 in 0.2 mi SSW 6.9 mph - 0.04 in Snow Heavy Snow
5:08 PM 12.2 °F 2.9 °F 10.4 °F 92% 29.68 in 0.2 mi SSW 5.8 mph - 0.01 in Snow Snow
5:30 PM 12.2 °F -0.2 °F 10.4 °F 92% 29.68 in 0.2 mi SW 9.2 mph - 0.02 in Snow Heavy Snow
5:37 PM 12.2 °F -1.8 °F 10.4 °F 92% 29.68 in 0.2 mi SW 11.5 mph - 0.03 in Snow Heavy Snow
6:11 PM 12.2 °F -3.7 °F 10.4 °F 92% 29.69 in 0.2 mi SW 15.0 mph - N/A Snow Snow
6:32 PM 12.2 °F -2.5 °F 10.4 °F 92% 29.71 in 0.5 mi SSW 12.7 mph 18.4 mph 0.01 in Snow Heavy Snow
6:52 PM 10.4 °F -5.4 °F 8.6 °F 92% 29.71 in 0.5 mi SSW 13.8 mph 17.3 mph 0.03 in Snow Heavy Snow
7:08 PM 10.4 °F -5.4 °F 8.6 °F 92% 29.71 in 0.2 mi SSW 13.8 mph 17.3 mph 0.01 in Snow Heavy Snow
7:32 PM 10.4 °F -6.6 °F 8.6 °F 92% 29.72 in 0.2 mi SW 16.1 mph 23.0 mph 0.03 in Snow Heavy Snow
7:50 PM 10.4 °F -6.0 °F 8.6 °F 92% 29.73 in 0.5 mi SSW 15.0 mph 24.2 mph 0.06 in Snow Heavy Snow
8:10 PM 10.4 °F -5.4 °F 8.6 °F 92% 29.74 in 0.5 mi SSW 13.8 mph - 0.02 in Snow Snow
8:31 PM 10.4 °F -3.3 °F 8.6 °F 92% 29.74 in 0.2 mi SW 10.4 mph - 0.03 in Snow Heavy Snow
8:50 PM 10.4 °F -6.0 °F 8.6 °F 92% 29.74 in 0.8 mi WSW 15.0 mph 19.6 mph 0.04 in Snow Snow
9:12 PM 10.4 °F -4.1 °F 8.6 °F 92% 29.75 in 1.0 mi SW 11.5 mph - 0.01 in Snow Snow
9:32 PM 10.4 °F -2.4 °F 8.6 °F 92% 29.75 in 1.5 mi SW 9.2 mph - 0.03 in Snow Light Snow
9:51 PM 10.4 °F -2.4 °F 8.6 °F 92% 29.76 in 1.2 mi SW 9.2 mph - 0.03 in Snow Light Snow
10:12 PM 10.4 °F -3.3 °F 8.6 °F 92% 29.76 in 0.8 mi SW 10.4 mph - 0.01 in Snow Snow
10:31 PM 10.4 °F -4.1 °F 6.8 °F 85% 29.76 in 0.8 mi SW 11.5 mph - 0.01 in Snow Light Snow
10:51 PM 10.4 °F -1.5 °F 6.8 °F 85% 29.76 in 1.0 mi SW 8.1 mph - 0.01 in Snow Snow
11:12 PM 8.6 °F -5.5 °F 6.8 °F 92% 29.75 in 0.8 mi SW 10.4 mph - N/A Snow Snow
11:32 PM 10.4 °F -5.4 °F 6.8 °F 85% 29.75 in 0.5 mi SSW 13.8 mph 19.6 mph 0.02 in Snow Heavy Snow
11:52 PM 8.6 °F -8.9 °F 6.8 °F 92% 29.75 in 0.2 mi SSW 16.1 mph 20.7 mph 0.02 in Snow Heavy Snow